LAN650 SCEL-SPJC

Flight info

Callsign LAN650
Flight time N/A
Altitude 34000
Route DONTI5B DONTI UT131 ATEDA UL302 ASEPU/N0460F360 UL302 ILMAR
Aircraft A321/M-SDE3FGHIRWY/LB1

Departure

Time 2026-05-01 11:31
Airport Comodoro Arturo Merino Benítez International Airport (SCEL)

Arrival

Time N/A
Airport Jorge Chávez International Airport (SPJC)
Time Latitude Longitude Altitude Speed Heading
2026-05-01 10:59 -33.39699 -70.79008 1560 ft 0 kts 359°
2026-05-01 11:17 -33.39713 -70.79008 1560 ft 4 kts 359°
2026-05-01 11:17 -33.39735 -70.79008 1560 ft 2 kts 14°
2026-05-01 11:17 -33.39746 -70.79013 1560 ft 2 kts 59°
2026-05-01 11:17 -33.39750 -70.79025 1560 ft 2 kts 87°
2026-05-01 11:18 -33.39750 -70.79038 1560 ft 2 kts 89°
2026-05-01 11:18 -33.39750 -70.79040 1560 ft 0 kts 89°
2026-05-01 11:20 -33.39750 -70.79027 1560 ft 6 kts 89°
2026-05-01 11:20 -33.39749 -70.78968 1559 ft 7 kts 88°
2026-05-01 11:20 -33.39732 -70.78901 1559 ft 9 kts 42°
2026-05-01 11:21 -33.39632 -70.78884 1559 ft 18 kts
2026-05-01 11:21 -33.39562 -70.78887 1559 ft 15 kts
2026-05-01 11:21 -33.39465 -70.78896 1559 ft 13 kts 353°
2026-05-01 11:21 -33.39349 -70.78903 1558 ft 12 kts 349°
2026-05-01 11:22 -33.39312 -70.78947 1558 ft 14 kts 283°
2026-05-01 11:22 -33.39313 -70.79067 1558 ft 14 kts 266°
2026-05-01 11:22 -33.39319 -70.79177 1558 ft 12 kts 267°
2026-05-01 11:22 -33.39323 -70.79284 1559 ft 15 kts 267°
2026-05-01 11:23 -33.39328 -70.79404 1559 ft 14 kts 267°
2026-05-01 11:23 -33.39332 -70.79512 1559 ft 12 kts 268°
2026-05-01 11:23 -33.39335 -70.79615 1559 ft 13 kts 268°
2026-05-01 11:23 -33.39339 -70.79714 1559 ft 11 kts 267°
2026-05-01 11:24 -33.39343 -70.79799 1559 ft 11 kts 266°
2026-05-01 11:24 -33.39348 -70.79909 1559 ft 14 kts 267°
2026-05-01 11:24 -33.39279 -70.80055 1559 ft 10 kts 354°
2026-05-01 11:25 -33.39205 -70.80062 1559 ft 13 kts 356°
2026-05-01 11:25 -33.38982 -70.80072 1559 ft 21 kts 357°
2026-05-01 11:25 -33.38837 -70.80079 1559 ft 20 kts 358°
2026-05-01 11:26 -33.38700 -70.80088 1558 ft 19 kts 356°
2026-05-01 11:26 -33.38448 -70.80102 1558 ft 18 kts 357°
2026-05-01 11:26 -33.38326 -70.80108 1557 ft 17 kts 357°
2026-05-01 11:27 -33.38211 -70.80114 1557 ft 16 kts 357°
2026-05-01 11:27 -33.38100 -70.80121 1556 ft 16 kts 357°
2026-05-01 11:27 -33.37972 -70.80128 1556 ft 20 kts 357°
2026-05-01 11:27 -33.37839 -70.80135 1556 ft 18 kts 358°
2026-05-01 11:28 -33.37716 -70.80141 1556 ft 17 kts 357°
2026-05-01 11:28 -33.37602 -70.80147 1556 ft 16 kts 357°
2026-05-01 11:28 -33.37497 -70.80153 1555 ft 15 kts 357°
2026-05-01 11:29 -33.37312 -70.80164 1555 ft 12 kts 357°
2026-05-01 11:29 -33.37233 -70.80169 1555 ft 11 kts 357°
2026-05-01 11:29 -33.37107 -70.80278 1555 ft 18 kts 268°
2026-05-01 11:30 -33.37178 -70.80363 1555 ft 14 kts 196°
2026-05-01 11:30 -33.37289 -70.80364 1555 ft 23 kts 178°
2026-05-01 11:30 -33.37702 -70.80342 1555 ft 94 kts 177°
2026-05-01 11:30 -33.38550 -70.80296 1559 ft 147 kts 177°
2026-05-01 11:31 -33.39712 -70.80236 1677 ft 178 kts 178°
2026-05-01 11:31 -33.40891 -70.80181 2466 ft 166 kts 176°
2026-05-01 11:31 -33.42049 -70.80096 3074 ft 166 kts 175°
2026-05-01 11:31 -33.43207 -70.80025 3532 ft 167 kts 181°
2026-05-01 11:32 -33.44381 -70.80223 3895 ft 174 kts 192°
2026-05-01 11:32 -33.45580 -70.80609 4225 ft 182 kts 197°
2026-05-01 11:32 -33.46794 -70.81096 4611 ft 186 kts 201°
2026-05-01 11:32 -33.47928 -70.81860 4994 ft 189 kts 220°
2026-05-01 11:33 -33.48788 -70.83055 5362 ft 191 kts 242°
2026-05-01 11:33 -33.49197 -70.84561 5741 ft 190 kts 266°
2026-05-01 11:33 -33.49082 -70.86119 6153 ft 187 kts 286°
2026-05-01 11:33 -33.48671 -70.87575 6588 ft 184 kts 297°
2026-05-01 11:34 -33.48130 -70.88948 7004 ft 181 kts 295°
2026-05-01 11:34 -33.47749 -70.90413 7274 ft 192 kts 284°
2026-05-01 11:34 -33.47511 -70.92030 7529 ft 201 kts 282°
2026-05-01 11:34 -33.47360 -70.93711 7849 ft 207 kts 276°
2026-05-01 11:35 -33.47128 -70.95465 7983 ft 219 kts 290°
2026-05-01 11:35 -33.46482 -70.97168 8115 ft 233 kts 303°
2026-05-01 11:35 -33.45404 -70.98725 8238 ft 255 kts 320°
2026-05-01 11:35 -33.43859 -70.99883 8606 ft 268 kts 338°
2026-05-01 11:36 -33.42077 -71.00601 9254 ft 272 kts 341°
2026-05-01 11:36 -33.40271 -71.01311 9971 ft 273 kts 341°
2026-05-01 11:36 -33.38426 -71.02041 10345 ft 288 kts 340°
2026-05-01 11:36 -33.36479 -71.02813 10470 ft 310 kts 340°
2026-05-01 11:37 -33.34366 -71.03648 10602 ft 329 kts 341°
2026-05-01 11:37 -33.32160 -71.04520 11034 ft 337 kts 340°
2026-05-01 11:37 -33.29920 -71.05400 11626 ft 341 kts 340°
2026-05-01 11:37 -33.27652 -71.06285 12255 ft 344 kts 340°
2026-05-01 11:38 -33.25366 -71.07179 12840 ft 347 kts 340°
2026-05-01 11:38 -33.23054 -71.08087 13392 ft 352 kts 340°
2026-05-01 11:38 -33.20718 -71.09001 13998 ft 355 kts 340°
2026-05-01 11:38 -33.18359 -71.09917 14535 ft 358 kts 339°
2026-05-01 11:39 -33.15971 -71.10842 15059 ft 362 kts 339°
2026-05-01 11:39 -33.13561 -71.11776 15566 ft 366 kts 339°
2026-05-01 11:39 -33.11126 -71.12721 16046 ft 369 kts 339°
2026-05-01 11:39 -33.08672 -71.13675 16557 ft 373 kts 338°
2026-05-01 11:40 -33.06194 -71.14641 17032 ft 376 kts 338°
2026-05-01 11:40 -33.03689 -71.15617 17534 ft 380 kts 338°
2026-05-01 11:40 -33.01163 -71.16601 18002 ft 384 kts 338°
2026-05-01 11:40 -32.98611 -71.17594 18448 ft 388 kts 338°
2026-05-01 11:41 -32.96028 -71.18597 18846 ft 391 kts 338°
2026-05-01 11:41 -32.93373 -71.19402 19263 ft 397 kts 344°
2026-05-01 11:41 -32.90654 -71.20064 19689 ft 399 kts 343°
2026-05-01 11:41 -32.87931 -71.20730 20122 ft 401 kts 343°
2026-05-01 11:42 -32.85189 -71.21402 20544 ft 403 kts 343°
2026-05-01 11:42 -32.82431 -71.22075 20961 ft 405 kts 343°
2026-05-01 11:42 -32.79662 -71.22751 21393 ft 407 kts 343°
2026-05-01 11:42 -32.76881 -71.23433 21791 ft 409 kts 343°
2026-05-01 11:43 -32.74078 -71.24118 22189 ft 412 kts 343°
2026-05-01 11:43 -32.71269 -71.24799 22588 ft 414 kts 343°
2026-05-01 11:43 -32.68435 -71.25487 22982 ft 416 kts 343°
2026-05-01 11:44 -32.62735 -71.26878 23772 ft 420 kts 342°
2026-05-01 11:44 -32.59860 -71.27578 24106 ft 422 kts 342°
2026-05-01 11:44 -32.56969 -71.28275 24445 ft 424 kts 342°
2026-05-01 11:44 -32.54075 -71.28974 24772 ft 426 kts 342°
2026-05-01 11:45 -32.51199 -71.29671 25095 ft 428 kts 342°
2026-05-01 11:45 -32.48274 -71.30382 25420 ft 430 kts 342°
2026-05-01 11:45 -32.45344 -71.31091 25738 ft 431 kts 342°
2026-05-01 11:45 -32.42398 -71.31802 26052 ft 433 kts 342°
2026-05-01 11:46 -32.39438 -71.32523 26361 ft 435 kts 342°
2026-05-01 11:46 -32.36466 -71.33247 26673 ft 437 kts 342°
2026-05-01 11:46 -32.33482 -71.33967 26970 ft 438 kts 342°
2026-05-01 11:46 -32.30485 -71.34689 27256 ft 440 kts 342°
2026-05-01 11:47 -32.27481 -71.35412 27540 ft 442 kts 342°
2026-05-01 11:47 -32.24468 -71.36139 27836 ft 443 kts 342°
2026-05-01 11:47 -32.21440 -71.36870 28099 ft 444 kts 342°
2026-05-01 11:47 -32.18403 -71.37604 28359 ft 446 kts 342°
2026-05-01 11:48 -32.15355 -71.38341 28612 ft 448 kts 342°
2026-05-01 11:48 -32.12294 -71.39078 28897 ft 449 kts 342°
2026-05-01 11:48 -32.09226 -71.39812 29179 ft 451 kts 342°
2026-05-01 11:48 -32.06143 -71.40550 29457 ft 453 kts 342°
2026-05-01 11:49 -32.03054 -71.41290 29810 ft 452 kts 342°
2026-05-01 11:49 -31.99982 -71.42025 30167 ft 451 kts 342°
2026-05-01 11:49 -31.96903 -71.42761 30490 ft 450 kts 342°
2026-05-01 11:49 -31.93838 -71.43495 30811 ft 449 kts 342°
2026-05-01 11:50 -31.90772 -71.44229 31134 ft 449 kts 342°
2026-05-01 11:50 -31.87716 -71.44962 31454 ft 448 kts 342°
2026-05-01 11:50 -31.84667 -71.45694 31781 ft 447 kts 342°
2026-05-01 11:50 -31.81626 -71.46423 32113 ft 446 kts 342°
2026-05-01 11:51 -31.78590 -71.47150 32455 ft 445 kts 342°
2026-05-01 11:51 -31.75552 -71.47871 32762 ft 444 kts 342°
2026-05-01 11:51 -31.72519 -71.48588 33078 ft 444 kts 342°
2026-05-01 11:51 -31.69498 -71.49306 33362 ft 443 kts 342°
2026-05-01 11:52 -31.66483 -71.50029 33699 ft 442 kts 341°
2026-05-01 11:52 -31.63470 -71.50748 34033 ft 441 kts 341°
2026-05-01 11:52 -31.57482 -71.52164 34142 ft 436 kts 341°
2026-05-01 11:53 -31.51580 -71.53567 34116 ft 434 kts 341°
2026-05-01 11:53 -31.45677 -71.54976 34135 ft 432 kts 341°
2026-05-01 11:54 -31.39788 -71.56372 34135 ft 432 kts 342°
2026-05-01 11:54 -31.33887 -71.57777 34138 ft 432 kts 342°
2026-05-01 11:55 -31.27986 -71.59175 34131 ft 432 kts 342°
2026-05-01 11:55 -31.22094 -71.60564 34122 ft 431 kts 341°
2026-05-01 11:56 -31.16216 -71.61950 34135 ft 430 kts 341°
2026-05-01 11:56 -31.10335 -71.63337 34137 ft 430 kts 341°
2026-05-01 11:57 -31.05467 -71.64479 34128 ft 430 kts 341°
2026-05-01 11:57 -30.98625 -71.66090 34107 ft 429 kts 340°
2026-05-01 11:58 -30.92780 -71.67464 34119 ft 428 kts 340°
2026-05-01 11:59 -30.84036 -71.69506 34125 ft 427 kts 340°
2026-05-01 11:59 -30.78255 -71.70858 34127 ft 426 kts 340°
2026-05-01 12:00 -30.69541 -71.72899 34121 ft 425 kts 340°
2026-05-01 12:01 -30.60864 -71.74920 34129 ft 423 kts 339°
2026-05-01 12:01 -30.55090 -71.76266 34127 ft 423 kts 340°
2026-05-01 12:02 -30.49313 -71.77607 34092 ft 423 kts 339°
2026-05-01 12:02 -30.44525 -71.78727 34100 ft 422 kts 339°
2026-05-01 12:03 -30.38754 -71.80059 34108 ft 422 kts 339°
2026-05-01 12:03 -30.32979 -71.81381 34107 ft 422 kts 339°
2026-05-01 12:04 -30.27223 -71.82717 34103 ft 422 kts 339°
2026-05-01 12:04 -30.21473 -71.84051 34076 ft 422 kts 339°
2026-05-01 12:05 -30.15716 -71.85378 34097 ft 421 kts 339°
2026-05-01 12:05 -30.07091 -71.87367 34105 ft 421 kts 339°
2026-05-01 12:06 -30.01342 -71.88691 34110 ft 421 kts 339°
2026-05-01 12:06 -29.95598 -71.90015 34112 ft 421 kts 339°
2026-05-01 12:07 -29.89851 -71.91334 34110 ft 421 kts 339°
2026-05-01 12:07 -29.84104 -71.92653 34110 ft 421 kts 339°
2026-05-01 12:08 -29.78360 -71.93962 34109 ft 421 kts 339°
2026-05-01 12:08 -29.72612 -71.95272 34109 ft 421 kts 339°
2026-05-01 12:09 -29.66862 -71.96591 34100 ft 422 kts 339°
2026-05-01 12:09 -29.61100 -71.97903 34110 ft 422 kts 339°
2026-05-01 12:10 -29.52456 -71.99870 34118 ft 422 kts 339°
2026-05-01 12:11 -29.43819 -72.01844 34089 ft 422 kts 339°
2026-05-01 12:11 -29.38048 -72.03145 34108 ft 424 kts 339°
2026-05-01 12:12 -29.32255 -72.04450 34113 ft 424 kts 339°
2026-05-01 12:12 -29.26510 -72.05752 34114 ft 423 kts 339°
2026-05-01 12:13 -29.20724 -72.07054 34115 ft 423 kts 339°
2026-05-01 12:13 -29.14947 -72.08359 34091 ft 423 kts 339°
2026-05-01 12:14 -29.09131 -72.09675 34097 ft 424 kts 339°
2026-05-01 12:14 -29.03380 -72.10970 34102 ft 424 kts 339°
2026-05-01 12:15 -28.97588 -72.12271 34112 ft 424 kts 339°
2026-05-01 12:15 -28.91795 -72.13572 34114 ft 424 kts 339°
2026-05-01 12:16 -28.85992 -72.14871 34110 ft 426 kts 339°
2026-05-01 12:16 -28.80167 -72.16179 34114 ft 426 kts 339°
2026-05-01 12:17 -28.74345 -72.17484 34115 ft 426 kts 339°
2026-05-01 12:17 -28.68525 -72.18786 34117 ft 426 kts 339°
2026-05-01 12:18 -28.62703 -72.20086 34085 ft 426 kts 339°
2026-05-01 12:18 -28.56885 -72.21383 34092 ft 426 kts 339°
2026-05-01 12:19 -28.51063 -72.22683 34105 ft 426 kts 339°
2026-05-01 12:19 -28.45232 -72.23980 34105 ft 427 kts 339°
2026-05-01 12:20 -28.39402 -72.25278 34112 ft 427 kts 339°
2026-05-01 12:20 -28.33571 -72.26573 34098 ft 428 kts 340°
2026-05-01 12:21 -28.27713 -72.27871 34107 ft 429 kts 340°
2026-05-01 12:21 -28.21856 -72.29177 34111 ft 429 kts 340°
2026-05-01 12:22 -28.15993 -72.30482 34116 ft 429 kts 340°
2026-05-01 12:22 -28.10169 -72.31771 34118 ft 429 kts 340°
2026-05-01 12:23 -28.04301 -72.33068 34092 ft 429 kts 340°
2026-05-01 12:23 -27.98435 -72.34361 34101 ft 430 kts 340°
2026-05-01 12:24 -27.92556 -72.35660 34104 ft 430 kts 340°
2026-05-01 12:24 -27.86678 -72.36961 34108 ft 431 kts 340°
2026-05-01 12:25 -27.77850 -72.38898 34095 ft 431 kts 340°
2026-05-01 12:26 -27.71958 -72.40196 34104 ft 431 kts 340°
2026-05-01 12:26 -27.63121 -72.42140 34111 ft 432 kts 340°
2026-05-01 12:27 -27.54270 -72.44079 34115 ft 432 kts 340°
2026-05-01 12:28 -27.45715 -72.46855 34109 ft 426 kts 335°
2026-05-01 12:29 -27.37216 -72.49766 34120 ft 426 kts 335°
2026-05-01 12:29 -27.28721 -72.52678 34119 ft 425 kts 335°
2026-05-01 12:30 -27.20234 -72.55601 34119 ft 425 kts 335°
2026-05-01 12:31 -27.14572 -72.57534 34121 ft 425 kts 335°
2026-05-01 12:31 -27.08911 -72.59464 34117 ft 425 kts 335°
2026-05-01 12:32 -27.03257 -72.61404 34126 ft 425 kts 335°
2026-05-01 12:32 -26.94760 -72.64315 34098 ft 425 kts 335°
2026-05-01 12:33 -26.89094 -72.66243 34110 ft 425 kts 335°
2026-05-01 12:33 -26.83462 -72.68163 34115 ft 425 kts 335°
2026-05-01 12:34 -26.77800 -72.70091 34119 ft 425 kts 335°
2026-05-01 12:34 -26.72140 -72.72009 34116 ft 425 kts 335°
2026-05-01 12:35 -26.66471 -72.73927 34103 ft 424 kts 336°
2026-05-01 12:35 -26.60828 -72.75851 34109 ft 424 kts 336°
2026-05-01 12:36 -26.55190 -72.77759 34118 ft 423 kts 336°
2026-05-01 12:36 -26.49553 -72.79664 34118 ft 423 kts 336°
2026-05-01 12:37 -26.43916 -72.81567 34124 ft 423 kts 336°
2026-05-01 12:37 -26.38294 -72.83467 34095 ft 422 kts 336°
2026-05-01 12:38 -26.32656 -72.85371 34104 ft 423 kts 336°
2026-05-01 12:38 -26.27053 -72.87264 34109 ft 423 kts 336°
2026-05-01 12:39 -26.21419 -72.89164 34110 ft 423 kts 336°
2026-05-01 12:39 -26.15781 -72.91057 34113 ft 423 kts 336°
2026-05-01 12:40 -26.10136 -72.92960 34094 ft 423 kts 336°
2026-05-01 12:40 -26.04496 -72.94854 34103 ft 424 kts 336°
2026-05-01 12:41 -25.98846 -72.96744 34108 ft 424 kts 336°
2026-05-01 12:41 -25.93194 -72.98629 34119 ft 424 kts 336°
2026-05-01 12:42 -25.88499 -73.00198 34116 ft 424 kts 336°
2026-05-01 12:42 -25.82855 -73.02094 34085 ft 424 kts 336°
2026-05-01 12:43 -25.77205 -73.03981 34104 ft 424 kts 336°
2026-05-01 12:43 -25.71553 -73.05867 34103 ft 424 kts 336°
2026-05-01 12:44 -25.65895 -73.07750 34107 ft 425 kts 336°
2026-05-01 12:45 -25.54584 -73.11522 34085 ft 425 kts 336°
2026-05-01 12:45 -25.48919 -73.13411 34094 ft 425 kts 336°
2026-05-01 12:46 -25.43250 -73.15298 34100 ft 426 kts 336°
2026-05-01 12:46 -25.37580 -73.17178 34102 ft 426 kts 336°
2026-05-01 12:47 -25.31907 -73.19060 34104 ft 426 kts 336°
2026-05-01 12:47 -25.26218 -73.20941 34085 ft 426 kts 337°
2026-05-01 12:48 -25.20529 -73.22808 34092 ft 426 kts 337°
2026-05-01 12:48 -25.14878 -73.24679 34096 ft 426 kts 337°
2026-05-01 12:49 -25.09161 -73.26575 34103 ft 427 kts 337°
2026-05-01 12:49 -25.03508 -73.28441 34102 ft 427 kts 337°
2026-05-01 12:50 -24.97813 -73.30312 34094 ft 427 kts 337°
2026-05-01 12:50 -24.92125 -73.32185 34097 ft 427 kts 337°
2026-05-01 12:51 -24.86427 -73.34055 34097 ft 427 kts 337°
2026-05-01 12:52 -24.77886 -73.36871 34100 ft 427 kts 337°
2026-05-01 12:52 -24.69338 -73.39684 34079 ft 427 kts 337°
2026-05-01 12:53 -24.60783 -73.42475 34094 ft 428 kts 337°
2026-05-01 12:54 -24.55109 -73.44322 34093 ft 428 kts 337°
2026-05-01 12:54 -24.46552 -73.47123 34097 ft 428 kts 337°
2026-05-01 12:55 -24.37991 -73.49923 34099 ft 428 kts 337°
2026-05-01 12:56 -24.32275 -73.51782 34094 ft 428 kts 337°
2026-05-01 12:56 -24.26528 -73.53652 34095 ft 428 kts 337°
2026-05-01 12:57 -24.20856 -73.55495 34102 ft 428 kts 337°
2026-05-01 12:57 -24.12286 -73.58279 34094 ft 428 kts 338°
2026-05-01 12:58 -24.06569 -73.60136 34092 ft 428 kts 338°
2026-05-01 12:59 -23.97999 -73.62912 34089 ft 428 kts 338°
2026-05-01 12:59 -23.89437 -73.65696 34102 ft 428 kts 338°
2026-05-01 13:00 -23.80870 -73.68472 34079 ft 428 kts 338°
2026-05-01 13:01 -23.72286 -73.71253 34082 ft 429 kts 338°
2026-05-01 13:02 -23.63722 -73.74023 34088 ft 430 kts 338°
2026-05-01 13:07 -23.00666 -73.94285 34088 ft 429 kts 338°
2026-05-01 13:08 -22.94939 -73.96112 34090 ft 429 kts 338°
2026-05-01 13:08 -22.89217 -73.97944 34071 ft 429 kts 339°
2026-05-01 13:09 -22.83495 -73.99771 34080 ft 429 kts 339°
2026-05-01 13:09 -22.77759 -74.01593 34076 ft 429 kts 338°
2026-05-01 13:10 -22.72021 -74.03428 34069 ft 431 kts 338°
2026-05-01 13:10 -22.66265 -74.05264 34080 ft 431 kts 338°
2026-05-01 13:11 -22.60488 -74.07096 34059 ft 432 kts 339°
2026-05-01 13:11 -22.54711 -74.08929 34071 ft 432 kts 339°
2026-05-01 13:12 -22.48937 -74.10755 34078 ft 432 kts 339°
2026-05-01 13:12 -22.43161 -74.12584 34082 ft 432 kts 339°
2026-05-01 13:13 -22.37417 -74.14414 34078 ft 432 kts 339°
2026-05-01 13:13 -22.31645 -74.16243 34064 ft 432 kts 339°
2026-05-01 13:14 -22.25871 -74.18070 34072 ft 432 kts 339°
2026-05-01 13:14 -22.20096 -74.19889 34079 ft 432 kts 339°
2026-05-01 13:15 -22.14322 -74.21716 34080 ft 432 kts 339°
2026-05-01 13:15 -22.08552 -74.23535 34082 ft 432 kts 339°
2026-05-01 13:16 -22.02787 -74.25349 34087 ft 432 kts 339°
2026-05-01 13:16 -21.97013 -74.27169 34063 ft 432 kts 339°
2026-05-01 13:17 -21.85479 -74.30799 34074 ft 432 kts 339°
2026-05-01 13:18 -21.76813 -74.33514 34078 ft 432 kts 339°
2026-05-01 13:18 -21.71040 -74.35330 34081 ft 432 kts 339°
2026-05-01 13:19 -21.65298 -74.37131 34068 ft 432 kts 339°
2026-05-01 13:20 -21.56619 -74.39853 34064 ft 434 kts 339°
2026-05-01 13:20 -21.50822 -74.41673 34067 ft 434 kts 339°
2026-05-01 13:21 -21.42097 -74.44386 34067 ft 435 kts 339°
2026-05-01 13:21 -21.36321 -74.46187 34073 ft 435 kts 339°
2026-05-01 13:22 -21.30477 -74.48018 34078 ft 435 kts 339°
2026-05-01 13:22 -21.25651 -74.49524 34078 ft 435 kts 339°
2026-05-01 13:23 -21.18893 -74.51630 34078 ft 435 kts 339°
2026-05-01 13:23 -21.13080 -74.53436 34078 ft 435 kts 339°
2026-05-01 13:24 -21.08217 -74.54947 34061 ft 435 kts 339°
2026-05-01 13:25 -20.99527 -74.57652 34074 ft 435 kts 339°
2026-05-01 13:25 -20.93709 -74.59458 34077 ft 435 kts 339°
2026-05-01 13:26 -20.87906 -74.61261 34075 ft 435 kts 339°
2026-05-01 13:26 -20.82086 -74.63065 34072 ft 435 kts 339°
2026-05-01 13:27 -20.76281 -74.64855 34061 ft 435 kts 340°
2026-05-01 13:27 -20.67566 -74.67541 34073 ft 434 kts 340°
2026-05-01 13:28 -20.58863 -74.70238 34076 ft 434 kts 340°
2026-05-01 13:29 -20.47275 -74.73809 34079 ft 433 kts 340°
2026-05-01 13:31 -20.29910 -74.79170 34073 ft 432 kts 340°
2026-05-01 13:32 -20.15460 -74.83603 34071 ft 432 kts 340°
2026-05-01 13:33 -20.01018 -74.88022 34078 ft 431 kts 340°
2026-05-01 13:34 -19.89479 -74.91562 34070 ft 431 kts 340°
2026-05-01 13:35 -19.80825 -74.94197 34062 ft 431 kts 340°
2026-05-01 13:36 -19.72187 -74.96839 34071 ft 430 kts 340°
2026-05-01 13:36 -19.63560 -74.99477 34073 ft 430 kts 340°
2026-05-01 13:37 -19.57809 -75.01231 34078 ft 430 kts 340°
2026-05-01 13:37 -19.52057 -75.02975 34068 ft 430 kts 340°
2026-05-01 13:38 -19.43434 -75.05593 34070 ft 429 kts 340°
2026-05-01 13:39 -19.37730 -75.07325 34066 ft 429 kts 340°
2026-05-01 13:39 -19.31984 -75.09074 34065 ft 430 kts 340°
2026-05-01 13:40 -19.26240 -75.10823 34062 ft 430 kts 340°
2026-05-01 13:40 -19.20490 -75.12567 34063 ft 430 kts 340°
2026-05-01 13:41 -19.14729 -75.14314 34061 ft 430 kts 340°
2026-05-01 13:41 -19.08976 -75.16053 34066 ft 429 kts 340°
2026-05-01 13:42 -19.03233 -75.17787 34062 ft 429 kts 340°
2026-05-01 13:42 -18.97497 -75.19517 34064 ft 429 kts 340°
2026-05-01 13:43 -18.91757 -75.21247 34064 ft 429 kts 340°
2026-05-01 13:43 -18.86022 -75.22978 34052 ft 429 kts 340°
2026-05-01 13:44 -18.80322 -75.24701 34056 ft 428 kts 340°
2026-05-01 13:44 -18.74596 -75.26427 34064 ft 428 kts 340°
2026-05-01 13:45 -18.68856 -75.28155 34059 ft 428 kts 340°
2026-05-01 13:45 -18.63136 -75.29882 34061 ft 428 kts 340°
2026-05-01 13:46 -18.57410 -75.31605 34064 ft 427 kts 340°
2026-05-01 13:46 -18.51689 -75.33326 34050 ft 427 kts 340°